Location: Kellogg
(38.0159°N, 90.0546°W)
Time: 07:52:17
(UTC+00:00)

S-56A Canister/Altair - Pass Details

Date: 16 September 2024
Orbit: 636 x 2487 km, 38.9° (Epoch: 09 October)

Event Time Altitude Azimuth Distance (km) Brightness Sun altitude
Rises 01:18:35 0° 258° (WSW) 3,247 11.9 -14.7°
Reaches altitude 10° 01:20:41 10° 259° (WSW) 2,458 11.1 -15.1°
Maximum altitude 01:26:29 90° 166° (SSE) 1,080 8.2 -16.2°
Enters shadow 01:32:44 20° 81° (E) 2,763 9.8 -17.4°
Drops below altitude 10° 01:35:19 10° 81° (E) 3,659 - -17.9°
Sets 01:39:05 0° 82° (E) 4,949 - -18.6°
